Location: Hains Lake
(37.8540°N, 99.8578°W)
Time: 00:27:48
(UTC+00:00)

Vanguard 1 - Pass Details

Date: 28 November 2022
Orbit: 650 x 3831 km, 34.2° (Epoch: 05 February)

Event Time Altitude Azimuth Distance (km) Brightness Sun altitude
Exits shadow 08:57:56 17° 112° (ESE) 3,006 12.7 -53.7°
Drops below altitude 10° 09:00:11 10° 109° (ESE) 3,820 13.4 -53.2°
Sets 09:04:26 0° 107° (ESE) 5,325 14.3 -52.4°
